Timation 2 Rocket - Orbit

View from above orbital plane
View from above orbital plane
View from above satellite
View from above satellite

Ground track
Ground track

The orbit data is extracted from the following two-line orbital elements,

1 04159U 69082AB  13142.50425902  .00000006  00000-0  58329-4 0  2868
2 04159 069.9629 336.5274 0114359 140.4246 220.5267 13.72163212184124
Epoch (UTC): 22 May 2013 12:06:07
Eccentricity: 0.0114359
inclination: 69.9629°
perigee height: 907 km
apogee height: 1076 km
right ascension of ascending node: 336.5274°
argument of perigee: 140.4246°
revolutions per day: 13.72163212
mean anomaly at epoch: 220.5267°
orbit number at epoch: 18412

The dashed part of the orbit path shows where the satellite is in the earth's shadow,  

Developed and maintained by Chris Peat, Heavens-Above GmbH. Please read the updated FAQ before sending e-mail. Imprint. DLR